weather.gov     
National Weather Service

Other Public Products
NWS Homepage
This page is being discontinued on March 12, 2014.
The same data is available at this site. Please update your bookmarks.
Thank you, and we apologize for the inconvenience.
Please send an email to SR-SRH.Webmaster@noaa.gov with any concerns.


Current Version
Previous Version:    01  02  03  04  05  06  07  08  09  10  11  12  13  14  15  16  17  18  19  20  21  22  23  24  25  26  27  28  29  30  
   31  32  33  34  35  36  37  38  39  40  41  42  43  44  45  46  47  48  49  50  51  52  53  54  55  56  57  58  59  60  
[Printable]
778
FPUS83 KFGF 271631
OPUFGF
PRAIRIE TO PINES WEATHER ROUNDUP
NATIONAL WEATHER SERVICE EASTERN NORTH DAKOTA/GRAND FORKS ND
1100 AM CDT WED AUG 27 2014

 **SATELLITE DATA USED TO AUGMENT SKY COVER AT AUTOMATED STATIONS**
 *****  WEATHER ACROSS EASTERN NORTH DAKOTA  *****

CITY           SKY/WX    TMP DP  RH WIND       PRES   REMARKS
GRAND FORKS    SUNNY     65  55  70 S6        30.17F
GRAND FORKS AF SUNNY     67  58  72 VRB2      30.18S
GRAND CITY NWS   N/A     68 N/A N/A S5          N/A
BUXTON           N/A     69  56  65 S6          N/A
DEVILS LAKE    SUNNY     64  50  59 SW9       30.16S
FARGO          PTSUNNY   66  57  72 E3        30.20R
WAHPETON ARPT  MOSUNNY   66  55  68 SE7       30.21S
$$

 *****  WEATHER ACROSS CENTRAL AND WESTERN NORTH DAKOTA  *****

CITY           SKY/WX    TMP DP  RH WIND       PRES   REMARKS
JAMESTOWN      MOSUNNY   64  58  80 S7        30.18S
BISMARCK       SUNNY     62  56  80 S3        30.18S
MINOT          SUNNY     67  55  65 S8        30.12F
MINOT AFB      SUNNY     66  58  75 S9        30.12S
GARRISON         N/A     64  58  80 SW6       30.14F
WILLISTON      SUNNY     65  56  72 SE8       30.10S
DICKINSON      SUNNY     66  57  72 S10       30.14S
HETTINGER      SUNNY     68  58  70 S7        30.16F
$$

 *****  OTHER OBSERVATIONS NORTHEAST NORTH DAKOTA  *****

CITY           SKY/WX    TMP DP  RH WIND       PRES   REMARKS
WALHALLA         N/A     68  52  56 S7        30.15F
LANGDON        FAIR      68  50  52 SW7       30.16F
CAVALIER       FAIR      68  54  60 S5        30.15F
GRAFTON        FAIR      66  55  68 S3        30.16F
CANDO          FAIR      64  54  68 S8        30.17S
FORT TOTTEN    NOT AVBL
ROLLA          FAIR      64  54  68 SW12      30.16F
RUGBY          FAIR      63  55  77 S6        30.15F
 ***** THE ABOVE OBSERVATIONS ARE NON NWS ARE NOT QUALITY
        CONTROLLED AND MAY MIS-REPORT RAIN FOR SNOW...
$$

 *****  OTHER OBSERVATIONS SOUTHEAST NORTH DAKOTA *****

CITY           SKY/WX    TMP DP  RH WIND       PRES   REMARKS
COOPERSTOWN    NOT AVBL
VALLEY CITY    FAIR      66  61  82 S7        30.19S
OAKES            N/A     66  61  82 SE6       30.19R
GWINNER        SUNNY     66  59  77 SE8       30.21R
BUFFALO          N/A     68  53  59 CALM        N/A
WYNDMERE       NOT AVBL
 ***** THE ABOVE OBSERVATIONS ARE NON NWS ARE NOT QUALITY
       CONTROLLED AND MAY MIS-REPORT RAIN FOR SNOW...
$$

  *****  WEATHER ACROSS NORTHERN MINNESOTA  *****

CITY           SKY/WX    TMP DP  RH WIND       PRES   REMARKS
FLAG ISLAND    SUNNY     63  55  77 S6        30.16S
WARROAD        SUNNY     61  57  88 CALM      30.18S
ROSEAU         SUNNY     63  54  72 CALM      30.18S
HALLOCK        SUNNY     64  55  72 S5        30.16F
THF RVR FALLS  SUNNY     64  54  68 W3        30.19S
HALSTAD          N/A     65  54  66 SW2         N/A
FOSSTON        SUNNY     64  55  72 CALM      30.21S
BAUDETTE       MOSUNNY   59  54  83 VRB3      30.19S
WASKISH        SUNNY     66  57  72 CALM      30.19S
CROOKSTON      SUNNY     66  55  68 CALM      30.19F
$$
  *****  WEATHER ACROSS CENTRAL AND WEST MINNESOTA  *****

CITY           SKY/WX    TMP DP  RH WIND       PRES   REMARKS
BEMIDJI        SUNNY     64  54  71 SW5       30.21F
PARK RAPIDS    SUNNY     63  53  70 CALM      30.22R
WADENA         CLOUDY    64  55  72 S5        30.22S
DETROIT LAKES  MOSUNNY   64  55  72 CALM      30.23S
MOORHEAD       MOSUNNY   66  61  82 S3        30.21S
FERGUS FALLS   MOSUNNY   66  54  63 S6        30.21S
ELBOW LAKE     FAIR      67  58  72 SE9       30.21S
MORRIS MN      SUNNY     70  57  64 SE10      30.21S
STAPLES        CLOUDY    63  54  72 CALM      30.23R
WHEATON        SUNNY     66  55  68 SE6       30.22S
$$
  *****  WEATHER ELSEWHERE ACROSS MINNESOTA  *****

CITY           SKY/WX    TMP DP  RH WIND       PRES   REMARKS
DULUTH         SUNNY     64  49  57 VRB5      30.22S
INTRNTL FALLS  CLOUDY    63  51  65 CALM      30.19S
ELY            SUNNY     61  45  55 NW7       30.21S
CLOQUET        MOSUNNY   64  48  55 NW5       30.22S
BRAINERD       PTSUNNY   63  55  75 CALM      30.23R
HIBBING        PTSUNNY   63  51  65 SW5       30.22S
ALEXANDRIA     SUNNY     66  56  70 SE6       30.23S
SAINT CLOUD    SUNNY     69  55  60 VRB3      30.22S
MINNEAPOLIS    MOSUNNY   69  54  58 VRB6      30.25R
$$

  *****  WEATHER ACROSS SOUTH DAKOTA  *****

CITY           SKY/WX    TMP DP  RH WIND       PRES   REMARKS
SIOUX FALLS    CLOUDY    66  58  75 SE7       30.20F
BROOKINGS      NOT AVBL
WATERTOWN      CLOUDY    65  57  75 SE12      30.20S
HURON          CLOUDY    67  59  75 SE8       30.17S
SISSETON         N/A     69  58  67 SE8       30.18S
ABERDEEN       SUNNY     67  59  75 SE12      30.18R
MITCHELL       CLOUDY    66  59  78 SE10      30.17F
PIERRE         CLOUDY    66  64  93 E10       30.11S
MOBRIDGE       SUNNY     69  61  75 SE8       30.13R
RAPID CITY     SUNNY     68  58  70 N12       30.14F
$$

  *****  SOME WEATHER IN NEARBY STATES *****

CITY           SKY/WX    TMP DP  RH WIND       PRES   REMARKS
GLASGOW MT     SUNNY     67  55  65 SE10      30.01F
GREAT FALLS MT SUNNY     70  46  42 SW16G22   30.07F
CHEYENNE WY    LGT RAIN  60  56  86 W9        30.21S FOG
SCOTTSBLUFF NE PTSUNNY   68  62  81 SE12      30.11F
OMAHA NE       TSTM      68  66  93 CALM      30.18S FOG
DES MOINES IA  CLOUDY    73  64  73 E8        30.17R
DAVENPORT IA   CLOUDY    73  62  68 E6        30.17S
CHICAGO IL     PTSUNNY   76  61  59 SE7       30.14S
EAU CLAIRE WI  MOSUNNY   68  53  58 NE7       30.22R
LA CROSSE WI   PTSUNNY   73  56  54 VRB5      30.21R
$$

  *****  SOME NATIONAL WEATHER *****

CITY           SKY/WX    TMP DP  RH WIND       PRES   REMARKS
LA GUARDIA NY  SUNNY     86  60  41 VRB6      29.99F
RALEIGH NC     MOSUNNY   79  62  56 NE12      30.07F
ATLANTA GA     MOSUNNY   80  60  50 N3        30.14S
NEW ORLEANS LA PTSUNNY   86  74  67 NE12      30.03R HX  94
OKLAHOMA CITY  MOSUNNY   85  69  58 S5        30.12S
ALBUQUERQUE NM MOSUNNY   67  55  65 CALM      30.32S
SALT LAKE CITY PTSUNNY   63  54  72 CALM      30.23R
LOS ANGELES CA SUNNY     75  61  61 CALM      30.04R
BOISE ID       SUNNY     72  44  36 CALM      30.14S
SEATTLE WA     SUNNY     66  57  72 S5        30.06S
$$

*** WEATHER ACROSS MANITOBA...SASKATCHEWAN AND ONTARIO ***
                ***ONTARIO***

CITY           SKY/WX    TMP DP  RH WIND       PRES   REMARKS
GERALDTON      PTSUNNY   57  46  67 NW12      30.11
THUNDER BAY    PTSUNNY   64  46  52 NW6G17    30.17S
SIOUX LOOKOUT  CLOUDY    59  45  58 NW7       30.17S
TORONTO        PTSUNNY   73  54  49 N8        30.06F
BIG TROUT LK   CLOUDY    50  46  87 W7        30.10S
PICKLE LAKE    PTSUNNY   55  43  62 W12       30.14S
DRYDEN         SUNNY     59  45  58 W6        30.18S
KENORA         MOSUNNY   63  50  63 SW3       30.18S
$$
                *** MANITOBA***

CITY           SKY/WX    TMP DP  RH WIND       PRES   REMARKS
BRANDON        SUNNY     66  55  68 SW12      30.12S
DAUPHIN        SUNNY     72  55  56 SW14G20   30.03F
ISLAND LAKE    MOSUNNY   59  52  77 S6        30.03F
PILOT MOUND      N/A     66  52  59 SW13        N/A
THE PAS        PTSUNNY   72  54  53 S8        29.84F
THOMPSON       MOSUNNY   66  55  68 SW10      29.82F
WINNIPEG       SUNNY     68  54  60 S7        30.14S
LYNN LAKE      SUNNY     68  55  64 MISG      29.72F
CHURCHILL      PTSUNNY   55  46  71 S23G31    29.78F
GILLAM         MOSUNNY   59  48  67 S17       29.90F
$$
                ***SASKATCHEWAN***

CITY           SKY/WX    TMP DP  RH WIND       PRES   REMARKS
ESTEVAN        SUNNY     70  59  68 S8        30.08F
KINDERSLEY     MOSUNNY   68  52  56 S7        29.89F
LLOYDMINSTER   LGT RAIN  64  54  68 SW5       29.87S
PRINCE ALBERT  MOSUNNY   68  55  64 W5        29.87S
REGINA         SUNNY     66  55  68 SE8       30.00F
YORKTON        SUNNY     66  54  63 S14G21    30.01F




U.S. Dept. of Commerce
NOAA National Weather Service
1325 East West Highway
Silver Spring, MD 20910
E-mail: w-nws.webmaster@noaa.gov
Page last modified: May 16, 2007
NATIONAL WEATHER SERVICE: for Safety, for Work, for Fun - FOR LIFE